Chesapeake, VA

11:43 PM EDT on August 28, 2016 (GMT -0400)
Chesapeake Regional

Weather History for KCPK - December, 2011

Change the Weather History Date:

Tuesday, December 6, 2011

  Actual Average (KORF) Record (KORF)
Temperature  
Mean Temperature 65 °F 47 °F  
Max Temperature 73 °F 55 °F 80 °F (2013)
Min Temperature 57 °F 38 °F 24 °F (1895)
Degree Days  
Heating Degree Days 0 19  
Month to date heating degree days 107  
Since 1 July heating degree days 637  
Cooling Degree Days 0 0  
Month to date cooling degree days 0  
Year to date cooling degree days 1628  
Growing Degree Days 15 (Base 50)    
Moisture  
Dew Point 60 °F    
Average Humidity 84    
Maximum Humidity 100    
Minimum Humidity 64    
Precipitation  
Precipitation 0.00 in 0.10 in 1.20 in (1886)
Month to date precipitation 0.64  
Year to date precipitation 43.91  
Snow  
Snow 0.00 in 0.00 in 3.60 in (1953)
Month to date snowfall 0.0  
Since 1 July snowfall T  
Snow Depth -    
Sea Level Pressure  
Sea Level Pressure 30.13 in    
Wind  
Wind Speed 4 mph (South)    
Max Wind Speed 12 mph    
Max Gust Speed -    
Visibility 7 miles    
Events      
T = Trace of Precipitation, MM = Missing Value Source: NWS Daily Summary

Daily Weather History Graph

Daily Weather History Graph

Search for Another Location

Airport or City:

Trip Planner

Search our weather history database for the weather conditions in past years. The results will help you decide how hot, cold, wet, or windy it might be!

Date:

Astronomy

Dec. 06, 2011 Rise Set
Actual Time 7:03 AM EST 4:49 PM EST
Civil Twilight 6:34 AM EST 5:17 PM EST
Nautical Twilight 6:02 AM EST 5:49 PM EST
Astronomical Twilight 5:31 AM EST 6:21 PM EST
Moon 2:12 PM EST (12/6) 3:23 AM EST (12/6)
Length of Visible Light 10h 43m
Length of Day
9h 45m
Waxing Gibbous, 86% of the Moon is Illuminated
Dec 6
Waxing Gibbous
Dec 10
Full
Dec 17
Last Quarter
Dec 24
New
Jan 1
First Quarter

Hourly Weather History & Observations

Time (EST) Temp. Dew Point Humidity Pressure Visibility Wind Dir Wind Speed Gust Speed Precip Events Conditions
12:15 AM 60.8 °F 59.0 °F 94% 30.21 in 7.0 mi SSE 6.9 mph - N/A   Clear
12:35 AM 60.8 °F 59.0 °F 94% 30.19 in 7.0 mi SSE 8.1 mph - N/A   Clear
12:55 AM 62.6 °F 60.8 °F 94% 30.19 in 7.0 mi SSE 6.9 mph - N/A   Clear
1:15 AM 62.6 °F 60.8 °F 94% 30.18 in 7.0 mi SSE 5.8 mph - N/A   Clear
1:35 AM 60.8 °F 60.8 °F 100% 30.18 in 7.0 mi Calm Calm - N/A   Clear
1:55 AM 60.8 °F 59.0 °F 94% 30.18 in 7.0 mi Calm Calm - N/A   Clear
2:15 AM 60.8 °F 59.0 °F 94% 30.19 in 10.0 mi Calm Calm - N/A   Scattered Clouds
2:35 AM 60.8 °F 59.0 °F 94% 30.19 in 7.0 mi Calm Calm - N/A   Overcast
2:55 AM 60.8 °F 59.0 °F 94% 30.20 in 7.0 mi Calm Calm - N/A   Overcast
3:15 AM 60.8 °F 59.0 °F 94% 30.19 in 10.0 mi Calm Calm - N/A   Overcast
3:35 AM 60.8 °F 59.0 °F 94% 30.18 in 7.0 mi SSE 4.6 mph - N/A   Overcast
3:55 AM 60.8 °F 59.0 °F 94% 30.18 in 7.0 mi Calm Calm - N/A   Mostly Cloudy
4:15 AM 60.8 °F 59.0 °F 94% 30.17 in 10.0 mi Calm Calm - N/A   Overcast
4:35 AM 60.8 °F 59.0 °F 94% 30.17 in 7.0 mi Calm Calm - N/A   Mostly Cloudy
4:55 AM 60.8 °F 59.0 °F 94% 30.17 in 7.0 mi Calm Calm - N/A   Overcast
5:15 AM 60.8 °F 59.0 °F 94% 30.17 in 5.0 mi Calm Calm - N/A   Overcast
5:35 AM 59.0 °F 57.2 °F 94% 30.17 in 7.0 mi Calm Calm - N/A   Mostly Cloudy
5:55 AM 57.2 °F 57.2 °F 100% 30.17 in 7.0 mi Calm Calm - N/A   Scattered Clouds
6:15 AM 57.2 °F 57.2 °F 100% 30.17 in 2.0 mi Calm Calm - N/A   Mostly Cloudy
6:35 AM 57.2 °F 57.2 °F 100% 30.18 in 2.0 mi Calm Calm - N/A   Clear
6:55 AM 57.2 °F 57.2 °F 100% 30.17 in 1.5 mi Calm Calm - N/A   Mist
7:15 AM 59.0 °F 57.2 °F 94% 30.17 in 7.0 mi Calm Calm - N/A   Clear
7:35 AM 59.0 °F 59.0 °F 100% 30.17 in 7.0 mi Calm Calm - N/A   Clear
7:55 AM 60.8 °F 60.8 °F 100% 30.16 in 7.0 mi South 4.6 mph - N/A   Scattered Clouds
8:15 AM 60.8 °F 60.8 °F 100% 30.16 in 5.0 mi South 3.5 mph - N/A   Mostly Cloudy
8:35 AM 62.6 °F 60.8 °F 94% 30.16 in 7.0 mi South 5.8 mph - N/A   Scattered Clouds
8:55 AM 64.4 °F 60.8 °F 88% 30.16 in 5.0 mi South 6.9 mph - N/A   Scattered Clouds
9:15 AM 66.2 °F 62.6 °F 88% 30.16 in 4.0 mi South 8.1 mph - N/A   Scattered Clouds
9:35 AM 66.2 °F 62.6 °F 88% 30.16 in 5.0 mi South 9.2 mph - N/A   Haze
9:55 AM 68.0 °F 62.6 °F 83% 30.16 in 7.0 mi South 9.2 mph - N/A   Scattered Clouds
10:15 AM 68.0 °F 62.6 °F 83% 30.16 in 7.0 mi South 10.4 mph - N/A   Clear
10:35 AM 69.8 °F 62.6 °F 78% 30.15 in 7.0 mi South 9.2 mph - N/A   Clear
10:55 AM 69.8 °F 62.6 °F 78% 30.14 in 7.0 mi South 9.2 mph - N/A   Clear
11:15 AM 69.8 °F 62.6 °F 78% 30.14 in 7.0 mi South 10.4 mph - N/A   Clear
11:35 AM 71.6 °F 62.6 °F 73% 30.13 in 7.0 mi South 9.2 mph - N/A   Clear
12:15 PM 73.4 °F 62.6 °F 69% 30.10 in 7.0 mi South 11.5 mph - N/A   Clear
12:35 PM 73.4 °F 60.8 °F 65% 30.08 in 7.0 mi SSW 9.2 mph - N/A   Mostly Cloudy
12:55 PM 73.4 °F 60.8 °F 65% 30.08 in 7.0 mi SSW 10.4 mph - N/A   Overcast
1:15 PM 73.4 °F 60.8 °F 65% 30.07 in 7.0 mi South 10.4 mph - N/A   Overcast
1:35 PM 73.4 °F 60.8 °F 65% 30.07 in 7.0 mi SSW 9.2 mph - N/A   Mostly Cloudy
1:55 PM 73.4 °F 60.8 °F 65% 30.07 in 7.0 mi SW 8.1 mph - N/A   Scattered Clouds
2:35 PM 73.4 °F 60.8 °F 65% 30.06 in 7.0 mi SSW 8.1 mph - N/A   Scattered Clouds
2:55 PM 73.4 °F 60.8 °F 65% 30.06 in 7.0 mi SSW 5.8 mph - N/A   Scattered Clouds
3:15 PM 73.4 °F 60.8 °F 65% 30.06 in 7.0 mi South 6.9 mph - N/A   Mostly Cloudy
3:35 PM 73.4 °F 60.8 °F 65% 30.06 in 7.0 mi South 9.2 mph - N/A   Scattered Clouds
3:55 PM 71.6 °F 59.0 °F 64% 30.06 in 7.0 mi SSW 10.4 mph - N/A   Scattered Clouds
4:15 PM 71.6 °F 59.0 °F 64% 30.06 in 7.0 mi South 9.2 mph - N/A   Scattered Clouds
4:35 PM 69.8 °F 59.0 °F 68% 30.06 in 7.0 mi South 5.8 mph - N/A   Clear
4:55 PM 69.8 °F 59.0 °F 68% 30.06 in 10.0 mi Calm Calm - N/A   Clear
5:15 PM 68.0 °F 59.0 °F 73% 30.06 in 10.0 mi South 3.5 mph - N/A   Mostly Cloudy
5:35 PM 68.0 °F 59.0 °F 73% 30.06 in 10.0 mi South 4.6 mph - N/A   Mostly Cloudy
5:55 PM 69.8 °F 59.0 °F 68% 30.05 in 10.0 mi Calm Calm - N/A   Mostly Cloudy
6:15 PM 68.0 °F 60.8 °F 78% 30.06 in 7.0 mi Calm Calm - N/A   Scattered Clouds
6:35 PM 66.2 °F 60.8 °F 83% 30.06 in 10.0 mi Calm Calm - N/A   Scattered Clouds
6:55 PM 66.2 °F 60.8 °F 83% 30.06 in 10.0 mi South 5.8 mph - N/A   Clear
7:15 PM 66.2 °F 60.8 °F 83% 30.06 in 7.0 mi South 5.8 mph - N/A   Clear
7:35 PM 66.2 °F 60.8 °F 83% 30.06 in 7.0 mi SSE 5.8 mph - N/A   Clear
7:55 PM 66.2 °F 60.8 °F 83% 30.06 in 7.0 mi South 5.8 mph - N/A   Clear
8:15 PM 66.2 °F 60.8 °F 83% 30.06 in 10.0 mi SSE 9.2 mph - N/A   Clear
8:35 PM 66.2 °F 60.8 °F 83% 30.06 in 10.0 mi South 9.2 mph - N/A   Clear
8:55 PM 66.2 °F 60.8 °F 83% 30.06 in 10.0 mi South 8.1 mph - N/A   Clear
9:15 PM 64.4 °F 60.8 °F 88% 30.05 in 10.0 mi South 8.1 mph - N/A   Scattered Clouds
9:35 PM 64.4 °F 60.8 °F 88% 30.05 in 10.0 mi South 10.4 mph - N/A   Scattered Clouds
9:55 PM 64.4 °F 60.8 °F 88% 30.05 in 10.0 mi South 11.5 mph 16.1 mph N/A   Clear
10:15 PM 64.4 °F 60.8 °F 88% 30.04 in 7.0 mi South 8.1 mph - N/A   Scattered Clouds
10:35 PM 64.4 °F 60.8 °F 88% 30.03 in 10.0 mi South 8.1 mph - N/A   Clear
10:55 PM 64.4 °F 60.8 °F 88% 30.02 in 10.0 mi South 8.1 mph - N/A   Clear
11:15 PM 64.4 °F 60.8 °F 88% 30.01 in 7.0 mi South 8.1 mph - N/A   Scattered Clouds
11:35 PM 64.4 °F 60.8 °F 88% 30.01 in 7.0 mi South 9.2 mph - N/A   Mostly Cloudy
11:55 PM 64.4 °F 60.8 °F 88% 30.00 in 10.0 mi South 6.9 mph - N/A   Mostly Cloudy